Flag for Germany Weather past 2 weeks in Fürth, Bavaria, Germany

Now
59 °F

Sleet. Passing clouds.


Feels Like: 59 °F
Forecast: 54 / 67 °F
Wind: 2 mph from North

Location: Nuernberg

Current Time: Sep 21, 2014 at 12:19:03 AM

Latest Report: Sep 20, 2014 at 11:50 PM


Visibility: N/A

Pressure: 30.01 "Hg

Humidity: 100%

Dew point: 59 °F

Location of FürthLocation

Historic Weather in Fürth — Graph

°F

Fürth temperature yesterday

Maximum temperature yesterday: 70 °F (at 3:20 PM)
Minimum temperature yesterday: 57 °F (at 5:50 AM)
Average temperature yesterday: 62 °F

Past Weeks' High & Low Weather Summary

 TemperatureHumidityPressure
High77 °F (Sep 7, 2:20 PM)100% (Sep 5, 11:20 PM)30.12 "Hg (Sep 5, 11:20 PM)
Low46 °F (Sep 11, 5:50 AM)51% (Sep 7, 2:50 PM)29.89 "Hg (Sep 6, 3:50 PM)
Average61 °F87%30.00 "Hg
* Reported Sep 5 10:20 PM — Sep 20 10:20 PM, Fürth, Weather by CustomWeather, © 2014

Note: Actual official high and low records may vary slightly from our data, if they occured in-between our weather recording intervals... More about our weather records

Advertising

Fürth weather history for previous 24 hours

 ConditionsComfort  
Time TempWeatherWind HumidityBarometerVisibility
10:20 PM
Sep 20
61 °FSleet. Overcast.1 mph100%29.98 "HgN/A
9:50 PM61 °FFog.2 mph100%29.98 "HgN/A
9:20 PM61 °FPassing clouds.2 mph100%29.98 "HgN/A
8:50 PM61 °FPassing clouds.5 mph100%29.98 "HgN/A
8:20 PM63 °FPassing clouds.2 mph94%29.98 "HgN/A
7:50 PM64 °FPassing clouds.2 mph94%29.98 "HgN/A
3:20 PM70 °FScattered clouds.3 mph78%29.95 "HgN/A
2:50 PM68 °FSprinkles. Broken clouds.5 mph78%29.98 "HgN/A
2:20 PM68 °FScattered showers. Broken clouds.6 mph83%29.98 "HgN/A
1:50 PM68 °FPartly sunny.6 mph78%29.98 "HgN/A
1:20 PM68 °FBroken clouds.3 mph83%29.98 "HgN/A
12:50 PM66 °FBroken clouds.3 mph88%29.98 "HgN/A
12:20 PM66 °FBroken clouds.2 mph88%30.01 "HgN/A
11:50 AM66 °FBroken clouds.3 mph88%30.01 "HgN/A
11:20 AM64 °FPartly sunny.2 mph88%30.01 "HgN/A
10:50 AM64 °FPartly sunny.1 mph88%30.01 "HgN/A
10:20 AM64 °FPartly sunny.2 mph88%29.98 "HgN/A
9:50 AM63 °FBroken clouds.1 mph94%29.98 "HgN/A
9:20 AM61 °FPartly sunny.2 mph100%29.98 "HgN/A
8:50 AM61 °FPartly sunny.2 mph94%29.98 "HgN/A
8:20 AM59 °FPartly sunny.2 mph100%29.98 "HgN/A
7:50 AM59 °FPassing clouds.3 mph100%29.98 "HgN/A
7:20 AM57 °FFog.3 mph100%29.98 "HgN/A
6:50 AM57 °FPassing clouds.2 mph100%29.98 "HgN/A
6:20 AM57 °FFog.5 mph100%29.98 "HgN/A
5:50 AM57 °FFog.5 mph100%29.98 "HgN/A
5:20 AM59 °FFog.3 mph94%29.98 "HgN/A
4:50 AM59 °FPassing clouds.2 mph100%29.98 "HgN/A
4:20 AM61 °FPassing clouds.3 mph94%29.98 "HgN/A
3:20 AM61 °FPassing clouds.3 mph94%29.98 "HgN/A
2:20 AM61 °FSprinkles. Passing clouds.3 mph94%29.98 "HgN/A
1:50 AM61 °FFog.3 mph94%29.98 "HgN/A
1:20 AM61 °FFog.3 mph94%29.98 "HgN/A
12:50 AM61 °FClear.5 mph94%29.98 "Hg10 mi
12:20 AM61 °FPassing clouds.3 mph94%29.98 "HgN/A
Weather by CustomWeather, © 2014

See weather overviewHow to use our weather pages